Time,TemperatureF,DewpointF,PressureIn,WindDirection,WindDirectionDegrees,WindSpeedMPH,WindSpeedGustMPH,Humidity,HourlyPrecipIn,Conditions,Clouds,dailyrainin,SolarRadiationWatts/m^2,SoftwareType,DateUTC
2013-04-11 00:02:00,22.8,18.0,29.91,West,271,1.0,3.0,81,0.00,,,0.00,0,weatherlink.com 1.10,2013-04-11 06:02:00,
2013-04-11 00:17:00,22.9,18.0,29.90,West,278,0.0,3.0,81,0.00,,,0.00,0,weatherlink.com 1.10,2013-04-11 06:17:00,
2013-04-11 00:33:00,22.5,18.0,29.89,West,269,0.0,3.0,81,0.00,,,0.00,0,weatherlink.com 1.10,2013-04-11 06:33:00,
2013-04-11 00:47:00,22.2,17.0,29.89,SW,234,2.0,5.0,81,0.00,,,0.00,0,weatherlink.com 1.10,2013-04-11 06:47:00,
2013-04-11 01:02:00,21.9,17.0,29.88,WSW,248,1.0,4.0,81,0.00,,,0.00,0,weatherlink.com 1.10,2013-04-11 07:02:00,
2013-04-11 01:17:00,21.7,17.0,29.87,SW,235,0.0,3.0,82,0.00,,,0.00,0,weatherlink.com 1.10,2013-04-11 07:17:00,
2013-04-11 01:33:00,21.4,17.0,29.87,WSW,238,0.0,4.0,83,0.00,,,0.00,0,weatherlink.com 1.10,2013-04-11 07:33:00,
2013-04-11 01:48:00,21.3,17.0,29.87,West,263,0.0,3.0,84,0.00,,,0.00,0,weatherlink.com 1.10,2013-04-11 07:48:00,
2013-04-11 02:03:00,21.8,17.0,29.86,WSW,245,3.0,4.0,83,0.00,,,0.00,0,weatherlink.com 1.10,2013-04-11 08:03:00,
2013-04-11 02:19:00,22.1,18.0,29.86,West,262,0.0,5.0,83,0.00,,,0.00,0,weatherlink.com 1.10,2013-04-11 08:19:00,
2013-04-11 02:33:00,22.4,18.0,29.85,WNW,293,1.0,4.0,83,0.00,,,0.00,0,weatherlink.com 1.10,2013-04-11 08:33:00,
2013-04-11 02:48:00,22.4,19.0,29.85,WSW,240,3.0,4.0,85,0.00,,,0.00,0,weatherlink.com 1.10,2013-04-11 08:48:00,
2013-04-11 03:03:00,22.0,18.0,29.85,West,264,0.0,7.0,85,0.00,,,0.00,0,weatherlink.com 1.10,2013-04-11 09:03:00,
2013-04-11 03:18:00,21.5,18.0,29.85,SW,222,3.0,4.0,85,0.00,,,0.00,0,weatherlink.com 1.10,2013-04-11 09:18:00,
2013-04-11 03:34:00,21.0,18.0,29.86,WNW,300,0.0,4.0,87,0.00,,,0.00,0,weatherlink.com 1.10,2013-04-11 09:34:00,
2013-04-11 03:49:00,20.7,17.0,29.86,WNW,298,0.0,0.0,87,0.00,,,0.00,0,weatherlink.com 1.10,2013-04-11 09:49:00,
2013-04-11 04:04:00,20.8,17.0,29.85,SSE,147,0.0,3.0,86,0.00,,,0.00,0,weatherlink.com 1.10,2013-04-11 10:04:00,
2013-04-11 04:19:00,20.3,17.0,29.86,West,275,0.0,2.0,86,0.00,,,0.00,0,weatherlink.com 1.10,2013-04-11 10:19:00,
2013-04-11 04:34:00,19.5,16.0,29.85,West,275,0.0,1.0,87,0.00,,,0.00,0,weatherlink.com 1.10,2013-04-11 10:34:00,
2013-04-11 04:49:00,18.6,15.0,29.86,West,275,0.0,1.0,87,0.00,,,0.00,0,weatherlink.com 1.10,2013-04-11 10:49:00,
2013-04-11 05:04:00,18.4,16.0,29.86,West,279,1.0,2.0,89,0.00,,,0.00,0,weatherlink.com 1.10,2013-04-11 11:04:00,
2013-04-11 05:19:00,18.1,15.0,29.87,West,277,0.0,1.0,89,0.00,,,0.00,0,weatherlink.com 1.10,2013-04-11 11:19:00,
2013-04-11 05:35:00,17.6,15.0,29.88,West,277,0.0,0.0,90,0.00,,,0.00,0,weatherlink.com 1.10,2013-04-11 11:35:00,
2013-04-11 06:05:00,17.2,15.0,29.88,West,277,0.0,1.0,89,0.00,,,0.00,0,weatherlink.com 1.10,2013-04-11 12:05:00,
2013-04-11 06:20:00,16.8,14.0,29.89,West,277,0.0,0.0,89,0.00,,,0.00,0,weatherlink.com 1.10,2013-04-11 12:20:00,
2013-04-11 06:35:00,16.8,14.0,29.89,West,277,0.0,0.0,88,0.00,,,0.00,5,weatherlink.com 1.10,2013-04-11 12:35:00,
2013-04-11 06:50:00,17.2,14.0,29.90,West,277,0.0,2.0,88,0.00,,,0.00,11,weatherlink.com 1.10,2013-04-11 12:50:00,
2013-04-11 07:05:00,17.3,14.0,29.90,West,277,0.0,1.0,88,0.00,,,0.00,11,weatherlink.com 1.10,2013-04-11 13:05:00,
2013-04-11 07:20:00,17.5,14.0,29.91,West,277,0.0,0.0,87,0.00,,,0.00,14,weatherlink.com 1.10,2013-04-11 13:20:00,
2013-04-11 07:35:00,17.3,14.0,29.91,West,277,0.0,0.0,87,0.00,,,0.00,19,weatherlink.com 1.10,2013-04-11 13:35:00,
2013-04-11 07:51:00,18.4,15.0,29.91,West,277,0.0,0.0,86,0.00,,,0.00,25,weatherlink.com 1.10,2013-04-11 13:51:00,
2013-04-11 08:21:00,22.4,14.0,29.93,West,277,0.0,0.0,70,0.00,,,0.00,42,weatherlink.com 1.10,2013-04-11 14:21:00,
2013-04-11 08:52:00,24.0,14.0,29.95,North,360,0.0,2.0,67,0.00,,,0.00,397,weatherlink.com 1.10,2013-04-11 14:52:00,
2013-04-11 09:06:00,25.9,15.0,29.95,North,360,0.0,3.0,63,0.00,,,0.00,376,weatherlink.com 1.10,2013-04-11 15:06:00,
2013-04-11 09:22:00,27.6,15.0,29.96,WNW,294,0.0,2.0,59,0.00,,,0.00,434,weatherlink.com 1.10,2013-04-11 15:22:00,
2013-04-11 09:38:00,29.1,17.0,29.96,North,360,0.0,4.0,60,0.00,,,0.00,557,weatherlink.com 1.10,2013-04-11 15:38:00,
2013-04-11 09:52:00,30.3,18.0,29.95,SW,220,1.0,4.0,60,0.00,,,0.00,617,weatherlink.com 1.10,2013-04-11 15:52:00,
2013-04-11 10:07:00,31.9,17.0,29.95,WSW,244,1.0,4.0,54,0.00,,,0.00,663,weatherlink.com 1.10,2013-04-11 16:07:00,
2013-04-11 10:22:00,33.0,18.0,29.95,WNW,298,1.0,4.0,54,0.00,,,0.00,707,weatherlink.com 1.10,2013-04-11 16:22:00,
2013-04-11 10:37:00,34.3,18.0,29.95,SW,225,3.0,5.0,51,0.00,,,0.00,751,weatherlink.com 1.10,2013-04-11 16:37:00,
2013-04-11 10:52:00,36.7,20.0,29.94,WSW,246,3.0,6.0,50,0.00,,,0.00,786,weatherlink.com 1.10,2013-04-11 16:52:00,
2013-04-11 11:08:00,37.5,19.0,29.93,SW,229,3.0,7.0,47,0.00,,,0.00,821,weatherlink.com 1.10,2013-04-11 17:08:00,
2013-04-11 11:23:00,38.8,21.0,29.93,WSW,240,7.0,7.0,49,0.00,,,0.00,854,weatherlink.com 1.10,2013-04-11 17:23:00,
2013-04-11 11:38:00,39.2,19.0,29.93,WSW,242,2.0,9.0,44,0.00,,,0.00,882,weatherlink.com 1.10,2013-04-11 17:38:00,
2013-04-11 11:53:00,39.3,20.0,29.92,WSW,254,2.0,7.0,47,0.00,,,0.00,902,weatherlink.com 1.10,2013-04-11 17:53:00,
2013-04-11 12:08:00,40.9,20.0,29.91,WSW,250,2.0,6.0,44,0.00,,,0.00,937,weatherlink.com 1.10,2013-04-11 18:08:00,
2013-04-11 12:23:00,41.8,21.0,29.91,WSW,248,1.0,6.0,43,0.00,,,0.00,951,weatherlink.com 1.10,2013-04-11 18:23:00,
2013-04-11 12:38:00,43.1,22.0,29.90,WSW,249,5.0,8.0,43,0.00,,,0.00,958,weatherlink.com 1.10,2013-04-11 18:38:00,
2013-04-11 12:53:00,43.6,22.0,29.90,West,260,4.0,8.0,43,0.00,,,0.00,965,weatherlink.com 1.10,2013-04-11 18:53:00,
2013-04-11 13:09:00,44.6,25.0,29.90,West,263,6.0,8.0,46,0.00,,,0.00,970,weatherlink.com 1.10,2013-04-11 19:09:00,
2013-04-11 13:24:00,44.6,23.0,29.89,West,265,7.0,12.0,43,0.00,,,0.00,970,weatherlink.com 1.10,2013-04-11 19:24:00,
2013-04-11 13:40:00,44.2,22.0,29.89,West,263,5.0,10.0,42,0.00,,,0.00,965,weatherlink.com 1.10,2013-04-11 19:40:00,
2013-04-11 13:54:00,45.4,21.0,29.88,WSW,248,7.0,9.0,38,0.00,,,0.00,960,weatherlink.com 1.10,2013-04-11 19:54:00,
2013-04-11 14:09:00,44.7,19.0,29.88,WNW,288,6.0,9.0,36,0.00,,,0.00,951,weatherlink.com 1.10,2013-04-11 20:09:00,
2013-04-11 14:24:00,46.1,20.0,29.88,North,360,3.0,8.0,36,0.00,,,0.00,932,weatherlink.com 1.10,2013-04-11 20:24:00,
2013-04-11 14:39:00,46.3,20.0,29.87,West,269,2.0,8.0,35,0.00,,,0.00,947,weatherlink.com 1.10,2013-04-11 20:39:00,
2013-04-11 14:55:00,45.1,18.0,29.86,WNW,292,4.0,6.0,34,0.00,,,0.00,1021,weatherlink.com 1.10,2013-04-11 20:55:00,
2013-04-11 15:10:00,45.6,22.0,29.86,WSW,246,3.0,6.0,39,0.00,,,0.00,185,weatherlink.com 1.10,2013-04-11 21:10:00,
2013-04-11 15:25:00,42.0,20.0,29.86,North,360,3.0,6.0,42,0.00,,,0.00,148,weatherlink.com 1.10,2013-04-11 21:25:00,
2013-04-11 15:40:00,42.7,21.0,29.85,WNW,290,2.0,7.0,43,0.00,,,0.00,204,weatherlink.com 1.10,2013-04-11 21:40:00,
2013-04-11 15:55:00,44.0,23.0,29.85,WSW,256,2.0,7.0,44,0.00,,,0.00,264,weatherlink.com 1.10,2013-04-11 21:55:00,
2013-04-11 16:10:00,45.1,24.0,29.84,WNW,287,2.0,9.0,43,0.00,,,0.00,262,weatherlink.com 1.10,2013-04-11 22:10:00,
2013-04-11 16:25:00,45.3,23.0,29.84,WSW,257,3.0,9.0,41,0.00,,,0.00,218,weatherlink.com 1.10,2013-04-11 22:25:00,
2013-04-11 16:40:00,43.6,23.0,29.84,West,275,6.0,7.0,44,0.00,,,0.00,315,weatherlink.com 1.10,2013-04-11 22:40:00,
2013-04-11 16:55:00,42.7,24.0,29.84,SW,227,6.0,7.0,47,0.00,,,0.00,257,weatherlink.com 1.10,2013-04-11 22:55:00,
2013-04-11 17:10:00,41.9,25.0,29.85,North,360,2.0,6.0,51,0.00,,,0.00,172,weatherlink.com 1.10,2013-04-11 23:10:00,
2013-04-11 17:25:00,41.1,25.0,29.84,North,360,1.0,7.0,54,0.00,,,0.00,169,weatherlink.com 1.10,2013-04-11 23:25:00,
2013-04-11 17:40:00,41.3,26.0,29.84,North,360,2.0,8.0,54,0.00,,,0.00,153,weatherlink.com 1.10,2013-04-11 23:40:00,
2013-04-11 17:55:00,40.7,26.0,29.84,North,360,1.0,6.0,56,0.00,,,0.00,160,weatherlink.com 1.10,2013-04-11 23:55:00,
2013-04-11 18:10:00,40.5,25.0,29.84,North,360,0.0,6.0,55,0.00,,,0.00,111,weatherlink.com 1.10,2013-04-12 00:10:00,
2013-04-11 18:25:00,40.5,25.0,29.83,North,360,0.0,3.0,55,0.00,,,0.00,58,weatherlink.com 1.10,2013-04-12 00:25:00,
2013-04-11 18:40:00,40.5,27.0,29.83,North,360,1.0,2.0,58,0.00,,,0.00,33,weatherlink.com 1.10,2013-04-12 00:40:00,
2013-04-11 18:55:00,39.0,26.0,29.84,North,360,0.0,4.0,61,0.00,,,0.00,11,weatherlink.com 1.10,2013-04-12 00:55:00,
2013-04-11 19:10:00,36.4,29.0,29.84,North,360,0.0,6.0,73,0.00,,,0.00,5,weatherlink.com 1.10,2013-04-12 01:10:00,
2013-04-11 19:25:00,36.0,28.0,29.84,North,360,0.0,2.0,74,0.00,,,0.00,0,weatherlink.com 1.10,2013-04-12 01:25:00,
2013-04-11 19:41:00,36.3,28.0,29.84,North,360,0.0,2.0,71,0.00,,,0.00,0,weatherlink.com 1.10,2013-04-12 01:41:00,
2013-04-11 19:56:00,36.3,28.0,29.84,North,360,4.0,7.0,72,0.00,,,0.00,0,weatherlink.com 1.10,2013-04-12 01:56:00,
2013-04-11 20:11:00,35.9,28.0,29.85,North,360,1.0,5.0,72,0.00,,,0.00,0,weatherlink.com 1.10,2013-04-12 02:11:00,
2013-04-11 20:26:00,35.4,28.0,29.85,North,360,0.0,4.0,73,0.00,,,0.00,0,weatherlink.com 1.10,2013-04-12 02:26:00,
2013-04-11 20:41:00,35.1,27.0,29.86,North,360,0.0,2.0,73,0.00,,,0.00,0,weatherlink.com 1.10,2013-04-12 02:41:00,
2013-04-11 20:56:00,34.9,27.0,29.88,North,360,0.0,2.0,74,0.00,,,0.00,0,weatherlink.com 1.10,2013-04-12 02:56:00,
2013-04-11 21:11:00,34.0,28.0,29.88,North,360,2.0,3.0,78,0.00,,,0.00,0,weatherlink.com 1.10,2013-04-12 03:11:00,
2013-04-11 21:26:00,33.2,28.0,29.87,North,360,0.0,3.0,80,0.00,,,0.00,0,weatherlink.com 1.10,2013-04-12 03:26:00,
2013-04-11 21:41:00,32.8,28.0,29.87,North,360,2.0,3.0,82,0.00,,,0.00,0,weatherlink.com 1.10,2013-04-12 03:41:00,
2013-04-11 21:56:00,32.9,28.0,29.87,North,360,0.0,3.0,83,0.00,,,0.00,0,weatherlink.com 1.10,2013-04-12 03:56:00,
2013-04-11 22:11:00,32.9,29.0,29.88,North,360,2.0,4.0,84,0.00,,,0.00,0,weatherlink.com 1.10,2013-04-12 04:11:00,
2013-04-11 22:26:00,32.4,29.0,29.87,North,360,0.0,3.0,86,0.00,,,0.00,0,weatherlink.com 1.10,2013-04-12 04:26:00,
2013-04-11 22:41:00,31.9,29.0,29.87,North,360,0.0,1.0,89,0.00,,,0.00,0,weatherlink.com 1.10,2013-04-12 04:41:00,
2013-04-11 22:56:00,31.5,29.0,29.88,North,360,0.0,1.0,90,0.00,,,0.00,0,weatherlink.com 1.10,2013-04-12 04:56:00,
2013-04-11 23:11:00,31.2,28.0,29.87,North,360,0.0,0.0,89,0.00,,,0.00,0,weatherlink.com 1.10,2013-04-12 05:11:00,
2013-04-11 23:26:00,31.2,28.0,29.87,North,360,0.0,0.0,89,0.00,,,0.00,0,weatherlink.com 1.10,2013-04-12 05:26:00,
2013-04-11 23:41:00,31.7,28.0,29.87,North,360,0.0,0.0,87,0.00,,,0.00,0,weatherlink.com 1.10,2013-04-12 05:41:00,
2013-04-11 23:56:00,32.1,28.0,29.87,North,360,0.0,0.0,86,0.00,,,0.00,0,weatherlink.com 1.10,2013-04-12 05:56:00,